World > North America > United States > Iowa > Hardy  

Hardy, IA Hourly Weather Updates

Feedback E-mail the Weather

Quick WX

Hardy, IA Weather Maps

°F °C°F °C
Hardy Weather Map
UTC Time: 2/23/2024, 10:55
Your Time:

Hardy, IA Regional Weather

Expires:202402231100;;553438
ASUS43 KDMX 231006
RWRIA 

WEATHER ROUNDUP FOR IOWA
NATIONAL WEATHER SERVICE DES MOINES IA
400 AM CST FRI FEB 23 2024

NOTE: "FAIR" INDICATES FEW OR NO CLOUDS BELOW 12,000 FEET WITH NO
SIGNIFICANT WEATHER AND/OR OBSTRUCTIONS TO VISIBILITY.

* - THESE STATIONS ARE NOT NWS STATIONS...THUS NOT UNDER NWS
QUALITY CONTROL.  THEY ALSO DO NOT REPORT WEATHER SUCH 
AS PRECIPITATION OR FOG.  


IAZ004>006-015-016-023>025-035-036-231100-
   NORTH CENTRAL IOWA
  
CITY           SKY/WX    TMP DP  RH WIND       PRES   REMARKS
ALGONA *       CLEAR     28  28 100 SW9       29.76F WCI  20 TC  -2   
CLARION *      CLEAR     21  21 100 S7        29.80F WCI  13 TC  -6   
ESTHERVILLE    CLEAR     32  28  85 W13       29.76F WCI  22 TC   0   
FORT DODGE *   CLEAR     25  23  92 S3        29.81F TC  -4           
MASON CITY     CLEAR     31  27  85 W10       29.78F WCI  22 TC  -1   
FOREST CITY *  CLEAR     28  27  93 SW3       29.77F TC  -2           
WEBSTER CITY * CLEAR     28  23  80 SW12      29.79F WCI  18 TC  -2   
IOWA FALLS *   CLEAR     29  26  88 W7        29.81F WCI  22 TC  -1   
$$


SKY/WX - Weather  TMP - Temperature  DP - Dew Point  RH - Humidity
WIND - Wind Direction/Speed PRES - Barometric Pressure VSB - Visibility
WCI - Wind Chill Index E13G22 Wind - East Wind 13 mph/Gusts of 22 mph

Trending Headlines

Trending Entertainment Headlines

Hardy Radar Loop

Use the map search tool if you want to place a location marker on the radar map...

Hardy Quick Facts

National Two Day Weather Forecast


E-mail the Hardy Weather Forecast

Voice your opinion or tell us about page issues...